When you browse on this site, cookies collect data to enhance your experience and personalize the content and advertising you see.
Visit our Privacy Policy to learn more. By continuing to use the site, you agree to this use of cookies and data.
  • In Belgium
  • List of Countries
  • For 7 days
  • Water Temperature
  • Satellite Maps
  • Weather Map
  • Weather Widgets
  • user-avatar
    Login

    Hourly Weather Armawir

    Today, 21 January, Monday

    Time Temperature Precipitation Wind Pressure Humidity
    00:00 -3°C° 0 mm 2 mps 692 mmHg 37%
    01:00 -3°C° 0 mm 2 mps 692 mmHg 37%
    02:00 -3°C° 0 mm 2 mps 692 mmHg 37%
    03:00 -3°C° 0 mm 2 mps 692 mmHg 37%
    04:00 -4°C° 0 mm 2 mps 692 mmHg 38%
    05:00 -4°C° 0 mm 2 mps 692 mmHg 38%
    06:00 -4°C° 0 mm 2 mps 692 mmHg 38%
    07:00 -3°C° 0 mm 2 mps 692 mmHg 37%
    08:00 -3°C° 0 mm 2 mps 692 mmHg 36%
    09:00 -2°C° 0 mm 2 mps 692 mmHg 35%
    10:00 -1°C° 0 mm 2 mps 692 mmHg 33%
    11:00 +2°C° 0 mm 2 mps 691 mmHg 31%
    12:00 +4°C° 0 mm 1 mps 691 mmHg 29%
    13:00 +3°C° 0 mm 2 mps 690 mmHg 29%
    14:00 +3°C° 0 mm 2 mps 690 mmHg 30%
    15:00 +4°C° 0 mm 2 mps 690 mmHg 30%
    16:00 +3°C° 0 mm 2 mps 690 mmHg 33%
    17:00 +1°C° 0 mm 2 mps 690 mmHg 35%
    18:00 -1°C° 0 mm 2 mps 690 mmHg 37%
    19:00 -1°C° 0 mm 2 mps 690 mmHg 38%
    20:00 -2°C° 0 mm 2 mps 690 mmHg 39%
    21:00 -2°C° 0 mm 2 mps 690 mmHg 40%
    22:00 -2°C° 0 mm 2 mps 690 mmHg 40%
    23:00 -3°C° 0 mm 2 mps 690 mmHg 41%

    Tomorrow, 22 January, Tuesday

    Time Temperature Precipitation Wind Pressure Humidity
    00:00 -3°C° 0 mm 2 mps 690 mmHg 41%
    01:00 -3°C° 0 mm 2 mps 690 mmHg 41%
    02:00 -3°C° 0 mm 2 mps 689 mmHg 41%
    03:00 -3°C° 0 mm 2 mps 689 mmHg 42%
    04:00 -3°C° 0 mm 2 mps 689 mmHg 41%
    05:00 -3°C° 0 mm 2 mps 689 mmHg 41%
    06:00 -3°C° 0 mm 2 mps 688 mmHg 41%
    07:00 -3°C° 0 mm 2 mps 689 mmHg 40%
    08:00 -2°C° 0 mm 2 mps 689 mmHg 39%
    09:00 -1°C° 0 mm 2 mps 689 mmHg 37%
    10:00 +2°C° 0 mm 1 mps 689 mmHg 36%
    11:00 +3°C° 0 mm 1 mps 688 mmHg 35%
    12:00 +5°C° 0 mm 1 mps 688 mmHg 33%
    13:00 +5°C° 0 mm 1 mps 687 mmHg 34%
    14:00 +5°C° 0 mm 1 mps 687 mmHg 34%
    15:00 +6°C° 0 mm 1 mps 687 mmHg 35%
    16:00 +4°C° 0 mm 1 mps 687 mmHg 38%
    17:00 +3°C° 0 mm 1 mps 687 mmHg 41%
    18:00 +2°C° 0 mm 1 mps 688 mmHg 44%
    19:00 +2°C° 0 mm 1 mps 688 mmHg 44%
    20:00 -1°C° 0 mm 2 mps 688 mmHg 45%
    21:00 -1°C° 0 mm 2 mps 688 mmHg 46%
    22:00 -2°C° 0 mm 2 mps 689 mmHg 46%
    23:00 -2°C° 0 mm 2 mps 689 mmHg 46%

    Day after tomorrow, 23 January, Wednesday

    Time Temperature Precipitation Wind Pressure Humidity
    00:00 -2°C° 0 mm 2 mps 689 mmHg 47%
    01:00 -2°C° 0 mm 2 mps 689 mmHg 47%
    02:00 -3°C° 0 mm 2 mps 689 mmHg 47%
    03:00 -3°C° 0 mm 2 mps 689 mmHg 47%
    04:00 -3°C° 0 mm 2 mps 689 mmHg 47%
    05:00 -3°C° 0 mm 2 mps 689 mmHg 47%
    06:00 -3°C° 0 mm 2 mps 689 mmHg 47%
    07:00 0°C° 0 mm 1 mps 689 mmHg 45%
    08:00 0°C° 0 mm 1 mps 690 mmHg 44%
    09:00 +1°C° 0 mm 1 mps 690 mmHg 42%
    10:00 +2°C° 0 mm 1 mps 690 mmHg 41%
    11:00 +2°C° 0 mm 2 mps 690 mmHg 40%
    12:00 +4°C° 0 mm 2 mps 690 mmHg 39%
    13:00 +4°C° 0 mm 2 mps 689 mmHg 39%
    14:00 +4°C° 0 mm 2 mps 689 mmHg 39%
    15:00 +5°C° 0 mm 2 mps 689 mmHg 39%
    16:00 +4°C° 0 mm 2 mps 689 mmHg 42%
    17:00 +2°C° 0 mm 2 mps 690 mmHg 44%
    18:00 +1°C° 0 mm 2 mps 690 mmHg 47%
    19:00 +1°C° 0 mm 2 mps 691 mmHg 48%
    20:00 -1°C° 0 mm 2 mps 691 mmHg 49%
    21:00 -1°C° 0 mm 2 mps 692 mmHg 50%
    22:00 -1°C° 0 mm 2 mps 692 mmHg 50%
    23:00 -2°C° 0 mm 2 mps 692 mmHg 51%

    24 January, Thursday

    Time Temperature Precipitation Wind Pressure Humidity
    00:00 -2°C° 0 mm 2 mps 692 mmHg 52%
    01:00 -2°C° 0 mm 2 mps 692 mmHg 53%
    02:00 0°C° 0 mm 1 mps 692 mmHg 53%
    03:00 0°C° 0 mm 1 mps 692 mmHg 54%
    04:00 -2°C° 0 mm 2 mps 692 mmHg 54%
    05:00 -3°C° 0 mm 2 mps 692 mmHg 54%
    06:00 -3°C° 0 mm 2 mps 691 mmHg 54%
    07:00 -2°C° 0 mm 2 mps 692 mmHg 51%
    08:00 -1°C° 0 mm 2 mps 692 mmHg 48%
    09:00 +1°C° 0 mm 2 mps 692 mmHg 46%
    10:00 +2°C° 0 mm 2 mps 692 mmHg 44%
    11:00 +4°C° 0 mm 2 mps 691 mmHg 43%
    12:00 +4°C° 0 mm 3 mps 691 mmHg 41%
    13:00 +4°C° 0 mm 3 mps 691 mmHg 41%
    14:00 +5°C° 0 mm 3 mps 690 mmHg 41%
    15:00 +5°C° 0 mm 3 mps 690 mmHg 41%
    16:00 +4°C° 0 mm 3 mps 690 mmHg 43%
    17:00 +3°C° 0 mm 3 mps 690 mmHg 46%
    18:00 +2°C° 0 mm 2 mps 690 mmHg 49%
    19:00 +2°C° 0 mm 2 mps 690 mmHg 50%
    20:00 +2°C° 0 mm 2 mps 690 mmHg 51%
    21:00 +1°C° 0 mm 2 mps 690 mmHg 52%
    22:00 +1°C° 0 mm 2 mps 690 mmHg 52%
    23:00 +1°C° 0 mm 2 mps 690 mmHg 52%

    25 January, Friday

    Time Temperature Precipitation Wind Pressure Humidity
    00:00 +1°C° 0 mm 2 mps 690 mmHg 53%
    01:00 +2°C° 0 mm 1 mps 689 mmHg 53%
    02:00 +2°C° 0 mm 1 mps 689 mmHg 54%
    03:00 +2°C° 0 mm 1 mps 689 mmHg 54%
    04:00 +1°C° 0.1 mm 2 mps 689 mmHg 57%
    05:00 +1°C° 0.1 mm 2 mps 688 mmHg 59%
    06:00 0°C° 0.1 mm 3 mps 688 mmHg 62%
    07:00 +2°C° 0.1 mm 2 mps 688 mmHg 63%
    08:00 +2°C° 0.1 mm 2 mps 688 mmHg 63%
    09:00 +2°C° 0.1 mm 2 mps 689 mmHg 63%
    10:00 +3°C° 0.1 mm 3 mps 688 mmHg 62%
    11:00 +4°C° 0.1 mm 3 mps 688 mmHg 61%
    12:00 +5°C° 0.1 mm 3 mps 687 mmHg 60%
    13:00 +5°C° 0 mm 3 mps 687 mmHg 57%
    14:00 +7°C° 0 mm 3 mps 687 mmHg 55%
    15:00 +7°C° 0 mm 3 mps 686 mmHg 53%
    16:00 +5°C° 0 mm 3 mps 687 mmHg 56%
    17:00 +4°C° 0 mm 3 mps 687 mmHg 59%
    18:00 +4°C° 0 mm 2 mps 687 mmHg 61%
    19:00 +3°C° 0 mm 2 mps 687 mmHg 61%
    20:00 +3°C° 0 mm 2 mps 687 mmHg 61%
    21:00 +4°C° 0 mm 1 mps 688 mmHg 61%
    22:00 +4°C° 0 mm 1 mps 688 mmHg 61%
    23:00 +2°C° 0 mm 2 mps 687 mmHg 61%

    26 January, Saturday

    Time Temperature Precipitation Wind Pressure Humidity
    00:00 +2°C° 0 mm 2 mps 687 mmHg 61%
    01:00 +2°C° 0 mm 2 mps 687 mmHg 62%
    02:00 +3°C° 0 mm 1 mps 687 mmHg 62%
    03:00 +2°C° 0 mm 1 mps 687 mmHg 62%
    04:00 +2°C° 0 mm 1 mps 687 mmHg 62%
    05:00 +2°C° 0 mm 1 mps 687 mmHg 62%
    06:00 +1°C° 0 mm 2 mps 687 mmHg 62%
    07:00 +2°C° 0 mm 2 mps 687 mmHg 59%
    08:00 +3°C° 0 mm 2 mps 687 mmHg 55%
    09:00 +4°C° 0 mm 2 mps 687 mmHg 52%
    10:00 +5°C° 0 mm 2 mps 687 mmHg 50%
    11:00 +6°C° 0 mm 2 mps 687 mmHg 48%
    12:00 +7°C° 0 mm 3 mps 686 mmHg 46%
    13:00 +8°C° 0 mm 3 mps 686 mmHg 45%
    14:00 +8°C° 0 mm 3 mps 686 mmHg 44%
    15:00 +8°C° 0 mm 3 mps 685 mmHg 43%
    16:00 +7°C° 0 mm 3 mps 685 mmHg 45%
    17:00 +6°C° 0 mm 2 mps 686 mmHg 48%
    18:00 +5°C° 0 mm 2 mps 686 mmHg 50%
    19:00 +4°C° 0 mm 2 mps 686 mmHg 52%
    20:00 +4°C° 0 mm 2 mps 686 mmHg 53%
    21:00 +3°C° 0 mm 2 mps 686 mmHg 55%
    22:00 +3°C° 0 mm 2 mps 686 mmHg 55%
    23:00 +3°C° 0 mm 2 mps 686 mmHg 56%
    Show more